Погода в Космоабаде

Узбекистан     41°24′30″N   60°20′10″E
темп.,
°C
ветер,
м/с
пор.,
м/с
влажн.,
%
обл.,
%
осадки,
мм/ч
давл.,
гПа
погр.,
м
27 февраля, сб
сб2723:00−1ю5920100 0.0 1028817
02:00−1ююз7122499 0.0 1026735
05:000ююз7132999 0.1 1025689
08:00−1юз91467100 0.1 1024508
11:00+1юз81276100 0.2 1025394
14:00+3юз81069100 0.0 1025471
17:00+4юз596998 0.0 1024379
20:00+2ююз577189 0.0 1024105
28 февраля, вс
вс2823:00+2ю576679 0.0 102494
02:00+1ю455334 0.0 102365
05:00+1ююв443817 0.0 102155
08:00+1ююв453249 0.0 102186
11:00+6ююв562264 0.0 1021309
14:00+10ююв561960 0.0 1018635
17:00+12ююв462038 0.0 1016747
20:00+8юв452910 0.0 101659
1 марта, пн
пн123:00+6ююв45415 0.0 101778
02:00+5ююв44420 0.0 101642
05:00+4ююв34470 0.0 101624
08:00+3ю23510 0.0 101622
11:00+9ююз22350 0.0 1017261
14:00+14зюз34220 0.0 1017747
17:00+15зсз45210 0.0 10161021
20:00+11зсз34290 0.0 101831
2 марта, вт
вт223:00+9зсз45330 0.0 102073
02:00+5с56630 0.0 1021129
05:00+3с45890 0.0 1022125
08:00+2с479070 0.0 1024251
11:00+5ссв446470 0.0 1026593
14:00+9ссз335232 0.0 10251029
17:00+9ссз445063 0.0 10241180
20:00+7с4462100 0.0 1025452
3 марта, ср
ср323:00+5св347196 0.0 1025205
02:00+4в237848 0.0 102454
05:00+3вюв337873 0.0 102379
08:00+3вюв3478100 0.0 102391
11:00+6юв446299 0.0 1022577
14:00+9ююв335349 0.0 10201014
17:00+11ю334851 0.0 10181189
20:00+10юв345190 0.0 1017327